This is the latest recevied weather packets stored in our database for station/object M0JUI-1. If no packets are shown the sender has not sent any weather packets the latest 10 day(s).
| Time | Temp. | Humidity | Pressure | Rain* | Wind** | Luminosity | Snow |
|---|---|---|---|---|---|---|---|
| 1777532846 | 11.67° C | 99% | 1024.6 hPa | 0 mm | - | 170 W/m² | - |
| 1777532546 | 11.11° C | 99% | 1024.6 hPa | 0 mm | - | 157 W/m² | - |
| 1777532246 | 11.11° C | 99% | 1024.4 hPa | 0 mm | - | 148 W/m² | - |
| 1777531946 | 10.56° C | 99% | 1024.4 hPa | 0 mm | - | 134 W/m² | - |
| 1777531647 | 11.11° C | 99% | 1024.4 hPa | 0 mm | - | 130 W/m² | - |
| 1777531347 | 10.56° C | 99% | 1024.3 hPa | 0 mm | - | 115 W/m² | - |
| 1777531046 | 10° C | 99% | 1024.3 hPa | 0 mm | - | 71 W/m² | - |
| 1777530747 | 10° C | 99% | 1024.3 hPa | 0 mm | - | 64 W/m² | - |
| 1777530447 | 10° C | 99% | 1024.2 hPa | 0 mm | - | 60 W/m² | - |
| 1777530146 | 10° C | 99% | 1024.4 hPa | 0 mm | - | 57 W/m² | - |
| 1777529847 | 9.44° C | 99% | 1024.1 hPa | 0 mm | - | 53 W/m² | - |
| 1777529546 | 9.44° C | 99% | 1024.3 hPa | 0 mm | - | 50 W/m² | - |
| 1777529246 | 9.44° C | 99% | 1024.4 hPa | 0 mm | - | 48 W/m² | - |
| 1777528934 | 9.44° C | 99% | 1024.6 hPa | 0 mm | - | 45 W/m² | - |
| 1777528635 | 9.44° C | 1% | 1024.3 hPa | 0 mm | - | 42 W/m² | - |
| 1777528334 | 9.44° C | 1% | 1024.6 hPa | 0 mm | - | 39 W/m² | - |
| 1777528034 | 8.89° C | 1% | 1024.6 hPa | 0 mm | - | 36 W/m² | - |
| 1777527734 | 8.89° C | 1% | 1024.3 hPa | 0 mm | - | 34 W/m² | - |
| 1777527435 | 8.89° C | 1% | 1024.4 hPa | 0 mm | - | 31 W/m² | - |
| 1777527134 | 8.89° C | 1% | 1024.6 hPa | 0 mm | - | 28 W/m² | - |
| 1777526834 | 8.33° C | 1% | 1024.8 hPa | 0 mm | - | 26 W/m² | - |
| 1777526535 | 8.33° C | 1% | 1024.4 hPa | 0 mm | - | 21 W/m² | - |
| 1777526235 | 8.33° C | 1% | 1024.4 hPa | 0 mm | - | 19 W/m² | - |
| 1777525935 | 8.33° C | 1% | 1024.6 hPa | 0 mm | - | 16 W/m² | - |
| 1777525634 | 8.33° C | 1% | 1024.4 hPa | 0 mm | - | 13 W/m² | - |
* Rain latest hour (hover to see other rain measurements)
** Current wind speed in m/s (hover to see current wind gust speed)